Location: Cincinnati Observatory Center
(39.1389°N, 84.4225°W)
Time: 12:20:57
(UTC-04:00)

Amateur Radio Satellites - All Passes

Search period start: 23 March 2017 11:50
Search period end: 24 March 2017 11:50
Location: Cincinnati Observatory Center, 39.1389°N, 84.4225°W

Satellite Date Start Highest point End Downlink Frequencies (MHz)
Time Altitude Azimuth
DELFI C3 23 Mar 11:54:24 11:58:06 37° 287° (WNW) 12:01:46 145.870
DUCHIFAT 1 23 Mar 12:06:27 12:10:13 32° 71° (ENE) 12:14:00 145.980
PCSat 23 Mar 12:08:38 12:13:50 48° 303° (WNW) 12:19:06 145.827
JUGNU 23 Mar 12:11:40 12:13:17 11° 180° (S) 12:14:54 437.505
RS-15 23 Mar 12:18:43 12:25:57 19° 97° (E) 12:33:18 29.354- 29.394
FO-29 23 Mar 12:28:53 12:35:55 35° 265° (W) 12:42:46 435.910
BUGSAT 1 23 Mar 12:38:10 12:41:35 24° 69° (ENE) 12:45:02 437.445
VELOX 1 23 Mar 12:44:48 12:46:39 12° 91° (E) 12:48:29 145.980
NANOSAT C BR1 23 Mar 12:49:55 12:54:10 71° 258° (WSW) 12:58:26 145.865
ESTCUBE 1 23 Mar 12:50:26 12:54:50 50° 99° (E) 12:59:12 437.505/2401.250
EO-79 23 Mar 12:52:08 12:56:21 61° 259° (W) 13:00:37 145.935-145.965
LO-87 23 Mar 13:02:26 13:05:58 46° 285° (WNW) 13:09:28 145.935 - 145.965
AIST 2D 23 Mar 13:04:34 13:07:11 19° 265° (W) 13:09:49 435.315
POLYITAN 1 23 Mar 13:19:42 13:23:27 29° 263° (W) 13:27:14 437.675
QB50P2 23 Mar 13:24:27 13:27:57 24° 265° (W) 13:31:28 145.880/145.840
Gurwin Techsat 1B 23 Mar 13:40:05 13:44:07 22° 65° (ENE) 13:48:10 435.225
DUCHIFAT 1 23 Mar 13:42:46 13:45:55 20° 266° (W) 13:49:05 145.980
Oscar 19 23 Mar 13:53:56 13:58:52 51° 72° (ENE) 14:03:49 437.125/150
SPROUT 23 Mar 13:54:53 13:59:10 68° 101° (ESE) 14:03:25 437.525
SRMSAT 23 Mar 14:07:51 14:09:19 11° 177° (S) 14:10:48 437.500
DX 1 23 Mar 14:08:15 14:12:26 42° 99° (E) 14:16:35 434.975-435.025
BUGSAT 1 23 Mar 14:13:15 14:16:49 26° 264° (W) 14:20:26 437.445
50 SAT 23 Mar 14:17:19 14:20:50 78° 283° (WNW) 14:24:20 437.505
AO-7 23 Mar 14:18:10 14:23:10 18° 50° (NE) 14:28:07 .
VELOX 1 23 Mar 14:19:03 14:23:26 57° 286° (WNW) 14:27:48 145.980
RS-15 23 Mar 14:24:25 14:36:21 81° 117° (ESE) 14:48:44 29.354- 29.394
NO-84 23 Mar 14:27:31 14:27:43 10° 25° (NNE) 14:27:57 435.350 FM
ESTCUBE 1 23 Mar 14:28:35 14:31:12 15° 295° (WNW) 14:33:49 437.505/2401.250
UKube-1 23 Mar 14:55:38 15:00:00 79° 283° (WNW) 15:04:19 .
SO-50 23 Mar 15:15:33 15:17:03 11° 107° (ESE) 15:18:33 436.795
BEESAT 23 Mar 15:16:29 15:18:04 11° 90° (E) 15:19:38 436.000
Gurwin Techsat 1B 23 Mar 15:18:40 15:23:44 45° 261° (W) 15:28:50 435.225
ITUPSAT 1 23 Mar 15:29:05 15:32:00 16° 92° (E) 15:34:53 437.325
ITAMSAT 1 23 Mar 15:32:59 15:37:53 42° 70° (ENE) 15:42:48 435.822/435.867
SPROUT 23 Mar 15:33:29 15:34:29 11° 297° (WNW) 15:35:28 437.525
Oscar 19 23 Mar 15:35:06 15:38:27 18° 267° (W) 15:41:50 437.125/150
DX 1 23 Mar 15:45:25 15:48:16 17° 295° (WNW) 15:51:07 434.975-435.025
NO-84 23 Mar 16:02:33 16:05:49 57° 42° (NE) 16:09:23 435.350 FM
MOZHAYETS 4 23 Mar 16:04:05 16:06:42 15° 92° (E) 16:09:19
AO-7 23 Mar 16:06:18 16:14:37 78° 70° (ENE) 16:22:57 .
RS-15 23 Mar 16:39:26 16:50:16 36° 323° (NW) 17:01:22 29.354- 29.394
BEESAT 23 Mar 16:51:33 16:56:17 68° 286° (WNW) 17:00:59 436.000
SO-50 23 Mar 16:52:15 16:56:54 74° 302° (WNW) 17:01:31 436.795
ITUPSAT 1 23 Mar 17:05:29 17:10:05 49° 288° (WNW) 17:14:39 437.325
ITAMSAT 1 23 Mar 17:13:27 17:17:28 22° 266° (W) 17:21:31 435.822/435.867
MOZHAYETS 4 23 Mar 17:39:44 17:44:07 48° 287° (WNW) 17:48:28
NO-84 23 Mar 17:41:24 17:43:08 13° 234° (SW) 17:44:56 435.350 FM
KKS-1 23 Mar 17:46:19 17:50:33 40° 99° (E) 17:54:45 437.445
LilacSat-2 23 Mar 17:59:14 18:01:24 15° 67° (ENE) 18:03:34 437.200
O/OREOS (USA 219) 23 Mar 18:01:03 18:05:07 34° 104° (ESE) 18:09:15 437.305
AO-7 23 Mar 18:02:14 18:08:06 21° 267° (W) 18:14:01 .
XW-2F 23 Mar 18:04:04 18:06:19 15° 67° (ENE) 18:08:34 145.980 - 146.000
DOVE 4 23 Mar 18:06:39 18:10:32 28° 68° (ENE) 18:14:37 437.250
CUBESAT XI-V 23 Mar 18:22:16 18:26:56 77° 101° (ESE) 18:31:35 437.345
XW-2D 23 Mar 18:26:31 18:29:52 30° 71° (ENE) 18:33:13 145.860 - 145.880
STARS 23 Mar 18:32:09 18:36:32 56° 101° (E) 18:40:51 437.465
XW-2B 23 Mar 18:32:14 18:35:42 34° 72° (ENE) 18:39:09 145.730 - 145.750
SO-50 23 Mar 18:36:42 18:38:09 11° 321° (NW) 18:39:36 436.795
CUTE-I 23 Mar 18:36:48 18:41:53 45° 70° (ENE) 18:46:58 437.470
NUDT-PHONESAT 23 Mar 18:38:28 18:41:51 32° 72° (ENE) 18:45:13 437.300
KAITUO 1B 23 Mar 18:41:17 18:44:43 35° 73° (ENE) 18:48:09 145.475/437.950
XW-2C 23 Mar 18:42:01 18:45:41 46° 74° (ENE) 18:49:21 145.795 - 145.815
RS-15 23 Mar 18:59:49 19:08:08 20° 357° (N) 19:16:25 29.354- 29.394
PCSat 23 Mar 19:15:12 19:18:45 17° 45° (NE) 19:22:18 145.827
CUTE 1.7 + AOD 2 23 Mar 19:21:25 19:24:01 16° 66° (ENE) 19:26:37 437.475
SEEDS 23 Mar 19:23:06 19:23:51 10° 64° (ENE) 19:24:36 437.485
KKS-1 23 Mar 19:23:41 19:26:48 19° 294° (WNW) 19:29:54 437.445
LilacSat-2 23 Mar 19:31:48 19:35:22 36° 262° (W) 19:38:56 437.200
XW-2F 23 Mar 19:36:41 19:40:10 34° 262° (W) 19:43:39 145.980 - 146.000
O/OREOS (USA 219) 23 Mar 19:41:03 19:44:36 22° 301° (WNW) 19:48:11 437.305
XW-2A 23 Mar 19:44:08 19:47:15 32° 73° (ENE) 19:50:23 145.665 - 145.685
DOVE 4 23 Mar 19:44:13 19:48:07 28° 266° (W) 19:52:15 437.250
HO-68 23 Mar 19:46:03 19:52:53 51° 68° (ENE) 19:59:45 435.675
YUBILEINY 23 Mar 19:52:12 20:00:45 57° 78° (ENE) 20:09:15 435.215
M-CUBED/EXP-1 PRIME 23 Mar 20:01:29 20:06:07 75° 107° (ESE) 20:10:47 437.505
XW-2D 23 Mar 20:01:35 20:04:06 17° 266° (W) 20:06:37 145.860 - 145.880
CUBESAT XI-V 23 Mar 20:02:24 20:03:39 11° 298° (WNW) 20:04:53 437.345
CUBEBUG 2 23 Mar 20:03:13 20:07:02 24° 68° (ENE) 20:10:50 437.445
XW-2B 23 Mar 20:07:46 20:09:59 15° 267° (W) 20:12:12 145.730 - 145.750
STARS 23 Mar 20:10:10 20:12:22 14° 297° (WNW) 20:14:34 437.465
NUDT-PHONESAT 23 Mar 20:13:37 20:15:50 15° 267° (W) 20:18:05 437.300
KAITUO 1B 23 Mar 20:16:51 20:18:51 14° 267° (W) 20:20:51 145.475/437.950
CUTE-I 23 Mar 20:17:59 20:22:05 22° 266° (W) 20:26:12 437.470
XW-2C 23 Mar 20:19:02 20:20:07 11° 269° (W) 20:21:11 145.795 - 145.815
ZACube-1 23 Mar 20:26:36 20:29:15 15° 65° (ENE) 20:31:52 437.345
Oscar 11 23 Mar 20:27:09 20:28:13 11° 63° (ENE) 20:29:16 .
AAUSAT CUBESAT 2 23 Mar 20:49:26 20:53:23 49° 74° (ENE) 20:57:21 437.432
SEEDS 23 Mar 20:54:51 20:58:59 65° 260° (W) 21:03:07 437.485
CUTE 1.7 + AOD 2 23 Mar 20:55:32 20:59:31 40° 262° (W) 21:03:30 437.475
AO-73 23 Mar 20:55:37 20:59:28 28° 70° (ENE) 21:03:17 145.935
PCSat 23 Mar 20:57:19 21:02:46 77° 244° (WSW) 21:08:10 145.827
STRAND 1 23 Mar 21:07:41 21:12:49 85° 101° (E) 21:17:56 437.568
UWE-3 23 Mar 21:12:00 21:16:41 79° 76° (ENE) 21:21:20 435.000/436.395/437.385
RS-15 23 Mar 21:15:53 21:26:26 31° 32° (NNE) 21:36:39 29.354- 29.394
XW-2A 23 Mar 21:18:38 21:20:07 12° 267° (W) 21:21:37 145.665 - 145.685
HO-68 23 Mar 21:34:48 21:40:49 29° 265° (W) 21:46:53 435.675
M-CUBED/EXP-1 PRIME 23 Mar 21:37:52 21:39:57 13° 302° (WNW) 21:42:03 437.505
CUBEBUG 2 23 Mar 21:39:08 21:43:26 33° 263° (W) 21:47:45 437.445
YUBILEINY 23 Mar 21:49:51 21:56:58 30° 277° (W) 22:04:07 435.215
Oscar 11 23 Mar 21:59:27 22:03:45 68° 259° (W) 22:08:04 .
ZACube-1 23 Mar 22:00:37 22:05:05 52° 261° (W) 22:09:31 437.345
PRISM 23 Mar 22:06:16 22:07:35 11° 91° (E) 22:08:54 437.425
ISS 23 Mar 22:16:11 22:19:08 32° 135° (SE) 22:22:06 437.550
AAUSAT CUBESAT 2 23 Mar 22:27:30 22:29:06 12° 269° (W) 22:30:43 437.432
Tancredo 1 23 Mar 22:30:32 22:33:38 53° 137° (SE) 22:36:45 437.200
AO-73 23 Mar 22:31:46 22:35:36 26° 265° (W) 22:39:26 145.935
AO-85 23 Mar 22:33:59 22:38:27 72° 120° (ESE) 22:42:39 145.980
DELFI C3 23 Mar 22:38:06 22:42:00 81° 258° (WSW) 22:45:57 145.870
STRAND 1 23 Mar 22:49:29 22:51:15 12° 300° (WNW) 22:53:01 437.568
TIGRISAT 23 Mar 23:19:44 23:23:52 37° 98° (E) 23:27:52 435.000
RS-15 23 Mar 23:28:36 23:40:59 86° 60° (ENE) 23:52:44 29.354- 29.394
UNISAT 6 23 Mar 23:28:45 23:33:06 51° 100° (E) 23:37:19 437.425
BEESAT 3 23 Mar 23:35:57 23:39:19 28° 113° (ESE) 23:42:43 437.485
LO-87 23 Mar 23:37:04 23:40:33 52° 75° (ENE) 23:44:05 145.935 - 145.965
PRISM 23 Mar 23:39:06 23:43:10 54° 286° (WNW) 23:47:13 437.425
FO-29 23 Mar 23:40:35 23:46:14 39° 96° (E) 23:51:19 435.910
VELOX 1 23 Mar 23:42:44 23:43:18 10° 61° (ENE) 23:43:52 145.980
BEESAT 2 23 Mar 23:45:56 23:47:56 14° 109° (ESE) 23:49:57 435.950
SO-50 23 Mar 23:46:55 23:47:49 10° 38° (NE) 23:48:44 436.795
ESTCUBE 1 23 Mar 23:48:45 23:52:55 39° 72° (ENE) 23:57:05 437.505/2401.250
ISS 23 Mar 23:52:44 23:55:36 28° 331° (NNW) 23:58:30 437.550
Tancredo 1 24 Mar 00:07:30 00:09:58 20° 335° (NNW) 00:12:28 437.200
AO-85 24 Mar 00:17:07 00:19:15 13° 316° (NW) 00:21:20 145.980
AIST 2D 24 Mar 00:30:01 00:33:07 29° 97° (E) 00:36:13 435.315
NANOSAT C BR1 24 Mar 00:36:09 00:39:13 19° 94° (E) 00:42:15 145.865
EO-79 24 Mar 00:38:27 00:41:49 22° 95° (E) 00:45:08 145.935-145.965
SPROUT 24 Mar 00:46:52 00:50:55 43° 73° (ENE) 00:55:01 437.525
50 SAT 24 Mar 00:49:57 00:52:58 29° 72° (ENE) 00:56:01 437.505
TIGRISAT 24 Mar 00:57:08 01:00:14 19° 294° (WNW) 01:03:18 435.000
DX 1 24 Mar 01:02:41 01:06:31 32° 70° (ENE) 01:10:23 434.975-435.025
POLYITAN 1 24 Mar 01:05:02 01:09:08 45° 99° (E) 01:13:10 437.675
UNISAT 6 24 Mar 01:06:57 01:09:19 14° 296° (WNW) 01:11:39 437.425
QB50P2 24 Mar 01:09:25 01:13:37 56° 100° (E) 01:17:46 145.880/145.840
BEESAT 3 24 Mar 01:13:38 01:16:53 24° 310° (NW) 01:20:11 437.485
VELOX 1 24 Mar 01:14:42 01:19:05 76° 256° (WSW) 01:23:31 145.980
BEESAT 2 24 Mar 01:21:27 01:25:16 47° 305° (NW) 01:29:09 435.950
SO-50 24 Mar 01:24:37 01:29:07 71° 58° (ENE) 01:33:34 436.795
FO-29 24 Mar 01:25:57 01:31:05 28° 296° (WNW) 01:35:46 435.910
DUCHIFAT 1 24 Mar 01:26:28 01:30:41 68° 102° (ESE) 01:34:50 145.980
ESTCUBE 1 24 Mar 01:26:50 01:29:51 18° 267° (W) 01:32:54 437.505/2401.250
ISS 24 Mar 01:32:10 01:32:57 11° 351° (N) 01:33:44 437.550
RS-15 24 Mar 01:43:01 01:51:50 25° 260° (W) 02:00:25 29.354- 29.394
UKube-1 24 Mar 01:48:34 01:52:51 74° 75° (ENE) 01:57:10 .
BUGSAT 1 24 Mar 01:55:24 01:59:27 45° 99° (E) 02:03:25 437.445
AIST 2D 24 Mar 02:04:09 02:06:05 14° 292° (WNW) 02:07:59 435.315
Oscar 19 24 Mar 02:07:22 02:11:03 20° 93° (E) 02:14:45 437.125/150
NANOSAT C BR1 24 Mar 02:11:12 02:14:59 32° 289° (WNW) 02:18:44 145.865
EO-79 24 Mar 02:13:54 02:17:32 28° 290° (WNW) 02:21:09 145.935-145.965
BEESAT 24 Mar 02:21:48 02:24:04 13° 62° (ENE) 02:26:19 436.000
50 SAT 24 Mar 02:24:20 02:26:06 13° 267° (W) 02:27:53 437.505
SPROUT 24 Mar 02:24:32 02:27:02 15° 268° (W) 02:29:33 437.525
ITUPSAT 1 24 Mar 02:34:53 02:38:04 18° 64° (ENE) 02:41:15 437.325
DX 1 24 Mar 02:39:26 02:42:43 21° 265° (W) 02:46:03 434.975-435.025
POLYITAN 1 24 Mar 02:42:08 02:44:30 15° 295° (WNW) 02:46:52 437.675
QB50P2 24 Mar 02:47:08 02:48:54 12° 296° (WNW) 02:50:39 145.880/145.840
DUCHIFAT 1 24 Mar 03:05:03 03:05:44 10° 297° (WNW) 03:06:25 145.980
MOZHAYETS 4 24 Mar 03:05:32 03:07:52 14° 64° (ENE) 03:10:11
SO-50 24 Mar 03:07:40 03:08:56 11° 253° (WSW) 03:10:13 436.795
ISS 24 Mar 03:09:30 03:10:38 11° 12° (NNE) 03:11:46 437.550
Tancredo 1 24 Mar 03:22:58 03:24:27 12° 16° (NNE) 03:25:54 437.200
BUGSAT 1 24 Mar 03:32:05 03:34:23 15° 295° (WNW) 03:36:40 437.445
Gurwin Techsat 1B 24 Mar 03:35:38 03:40:59 79° 103° (ESE) 03:46:17 435.225
Oscar 19 24 Mar 03:45:39 03:50:35 47° 289° (WNW) 03:55:31 437.125/150
ITAMSAT 1 24 Mar 03:48:10 03:51:17 16° 92° (E) 03:54:22 435.822/435.867
BEESAT 24 Mar 03:56:30 04:01:15 67° 258° (WSW) 04:06:02 436.000
AO-7 24 Mar 04:10:05 04:16:49 27° 95° (E) 04:23:29 .
ITUPSAT 1 24 Mar 04:10:52 04:15:30 48° 260° (W) 04:20:09 437.325
O/OREOS (USA 219) 24 Mar 04:11:39 04:16:12 56° 66° (ENE) 04:20:43 437.305
MOZHAYETS 4 24 Mar 04:39:58 04:44:30 59° 260° (W) 04:49:03
KKS-1 24 Mar 04:43:13 04:47:11 32° 70° (ENE) 04:51:10 437.445
ISS 24 Mar 04:44:51 04:47:53 33° 31° (NNE) 04:50:56 437.550
Tancredo 1 24 Mar 04:58:06 05:01:13 47° 34° (NE) 05:04:20 437.200
Gurwin Techsat 1B 24 Mar 05:17:41 05:20:13 14° 300° (WNW) 05:22:44 435.225
CUBESAT XI-V 24 Mar 05:24:11 05:28:43 64° 75° (ENE) 05:33:16 437.345
ITAMSAT 1 24 Mar 05:25:59 05:31:06 58° 288° (WNW) 05:36:10 435.822/435.867
STARS 24 Mar 05:27:25 05:31:34 42° 72° (ENE) 05:35:46 437.465
O/OREOS (USA 219) 24 Mar 05:52:56 05:55:03 13° 262° (W) 05:57:12 437.305
AO-7 24 Mar 06:01:53 06:10:02 64° 293° (WNW) 06:18:11 .
KKS-1 24 Mar 06:20:19 06:23:45 22° 265° (W) 06:27:14 437.445
ISS 24 Mar 06:21:29 06:24:17 26° 227° (SW) 06:27:04 437.550
Tancredo 1 24 Mar 06:35:01 06:37:06 16° 230° (SW) 06:39:11 437.200
STRAND 1 24 Mar 06:46:35 06:48:56 13° 61° (ENE) 06:51:18 437.568
M-CUBED/EXP-1 PRIME 24 Mar 06:46:43 06:50:16 72° 71° (ENE) 06:54:08 437.505
CUTE-I 24 Mar 06:55:49 06:59:34 19° 93° (E) 07:03:18 437.470
YUBILEINY 24 Mar 07:03:24 07:04:51 10° 73° (ENE) 07:06:17 435.215
CUBESAT XI-V 24 Mar 07:05:05 07:06:30 11° 270° (W) 07:07:55 437.345
STARS 24 Mar 07:05:19 07:08:05 16° 267° (W) 07:10:53 437.465
AO-85 24 Mar 07:06:17 07:09:59 39° 54° (NE) 07:13:46 145.980
LilacSat-2 24 Mar 07:06:17 07:09:19 23° 95° (E) 07:12:21 437.200
XW-2F 24 Mar 07:10:05 07:13:08 23° 95° (E) 07:16:08 145.980 - 146.000
XW-2D 24 Mar 07:33:43 07:37:23 51° 99° (E) 07:41:01 145.860 - 145.880
XW-2B 24 Mar 07:39:32 07:43:15 59° 100° (E) 07:46:56 145.730 - 145.750
DOVE 4 24 Mar 07:42:49 07:48:10 87° 103° (ESE) 07:53:25 437.250
NUDT-PHONESAT 24 Mar 07:43:30 07:47:07 52° 100° (E) 07:50:42 437.300
KAITUO 1B 24 Mar 07:47:08 07:50:48 59° 101° (E) 07:54:26 145.475/437.950
XW-2C 24 Mar 07:49:34 07:53:20 83° 102° (ESE) 07:57:04 145.795 - 145.815
BEESAT 3 24 Mar 07:54:14 07:56:33 15° 45° (NE) 07:58:51 437.485
AO-7 24 Mar 07:57:26 08:01:12 14° 313° (NW) 08:04:57 .
STRAND 1 24 Mar 08:22:17 08:27:26 77° 257° (WSW) 08:32:37 437.568
CUTE-I 24 Mar 08:34:42 08:39:53 51° 289° (WNW) 08:45:01 437.470
XW-2A 24 Mar 08:39:35 08:42:48 39° 99° (E) 08:45:58 145.665 - 145.685
SEEDS 24 Mar 08:40:14 08:43:28 21° 94° (E) 08:46:41 437.485
LilacSat-2 24 Mar 08:40:35 08:43:30 21° 291° (WNW) 08:46:23 437.200
CUTE 1.7 + AOD 2 24 Mar 08:41:17 08:45:08 34° 97° (E) 08:48:59 437.475
XW-2F 24 Mar 08:44:19 08:47:09 21° 291° (WNW) 08:49:58 145.980 - 146.000
AO-85 24 Mar 08:47:36 08:50:04 16° 249° (WSW) 08:52:35 145.980
YUBILEINY 24 Mar 08:51:12 08:59:51 68° 92° (E) 09:08:29 435.215
NO-84 24 Mar 08:57:35 09:00:24 56° 318° (NW) 09:03:13 435.350 FM
HO-68 24 Mar 09:02:06 09:09:10 59° 102° (ESE) 09:16:13 435.675
UWE-3 24 Mar 09:04:13 09:06:58 16° 92° (E) 09:09:40 435.000/436.395/437.385
XW-2D 24 Mar 09:10:25 09:11:06 10° 295° (WNW) 09:11:46 145.860 - 145.880
DOVE 4 24 Mar 09:22:55 09:25:02 12° 299° (WNW) 09:27:09 437.250
BEESAT 3 24 Mar 09:30:33 09:34:31 58° 242° (WSW) 09:38:25 437.485
CUBEBUG 2 24 Mar 09:30:51 09:35:15 57° 100° (E) 09:39:27 437.445
BEESAT 2 24 Mar 09:39:54 09:43:58 67° 58° (ENE) 09:47:58 435.950
Oscar 11 24 Mar 09:48:15 09:51:42 23° 95° (E) 09:55:06 .
ZACube-1 24 Mar 09:50:24 09:54:11 31° 96° (E) 09:57:53 437.345
FO-29 24 Mar 09:51:01 09:56:33 22° 61° (ENE) 10:01:53 435.910
PCSat 24 Mar 09:57:00 10:00:08 16° 104° (ESE) 10:03:18 145.827
AAUSAT CUBESAT 2 24 Mar 10:07:36 10:11:44 74° 284° (WNW) 10:15:52 437.432
XW-2A 24 Mar 10:14:34 10:15:09 10° 294° (WNW) 10:15:45 145.665 - 145.685
SEEDS 24 Mar 10:15:31 10:19:08 28° 289° (WNW) 10:22:44 437.485
TIGRISAT 24 Mar 10:16:53 10:20:59 31° 70° (ENE) 10:25:05 435.000
DELFI C3 24 Mar 10:17:43 10:19:44 13° 92° (E) 10:21:46 145.870
CUTE 1.7 + AOD 2 24 Mar 10:17:45 10:20:43 19° 293° (WNW) 10:23:40 437.475
AO-73 24 Mar 10:20:08 10:24:21 64° 101° (E) 10:28:26 145.935
UNISAT 6 24 Mar 10:25:53 10:30:16 41° 72° (ENE) 10:34:40 437.425
PRISM 24 Mar 10:26:48 10:30:51 88° 66° (ENE) 10:34:57 437.425
UWE-3 24 Mar 10:39:34 10:43:36 38° 288° (WNW) 10:47:31 435.000/436.395/437.385
YUBILEINY 24 Mar 10:50:27 10:57:19 25° 292° (WNW) 11:04:15 435.215
HO-68 24 Mar 10:50:41 10:56:24 27° 299° (WNW) 11:02:06 435.675
AIST 2D 24 Mar 11:05:53 11:06:27 10° 66° (ENE) 11:07:02 435.315
CUBEBUG 2 24 Mar 11:09:16 11:11:18 13° 297° (WNW) 11:13:18 437.445
Oscar 11 24 Mar 11:24:06 11:27:47 28° 290° (WNW) 11:31:27 .
ZACube-1 24 Mar 11:27:07 11:30:15 20° 292° (WNW) 11:33:21 437.345
NANOSAT C BR1 24 Mar 11:28:08 11:30:14 14° 64° (ENE) 11:32:20 145.865
EO-79 24 Mar 11:30:28 11:33:03 16° 66° (ENE) 11:35:37 145.935-145.965
FO-29 24 Mar 11:32:53 11:40:47 81° 257° (WSW) 11:48:21 435.910
PCSat 24 Mar 11:37:33 11:42:55 66° 300° (WNW) 11:48:21 145.827
